Waarnemingen

Advertentie
Mijn weer
Reims-Prunay, Frankrijk (7072): temperatuur & dauwpunt: 20.05.2018 10:00:00 - 26.05.2018 10:00:00 (CEST)Reims-Prunay, Frankrijk (7072): temperatuur 5cm: 20.05.2018 10:00:00 - 26.05.2018 10:00:00 (CEST)Reims-Prunay, Frankrijk (7072): temperatuur -20cm & temperatuur -100cm: 20.05.2018 10:00:00 - 26.05.2018 10:00:00 (CEST)Reims-Prunay, Frankrijk (7072): windsnelheid & windstoten: 20.05.2018 10:00:00 - 26.05.2018 10:00:00 (CEST)Reims-Prunay, Frankrijk (7072): windrichting: 20.05.2018 10:00:00 - 26.05.2018 10:00:00 (CEST)Reims-Prunay, Frankrijk (7072): luchtdruk: 20.05.2018 10:00:00 - 26.05.2018 10:00:00 (CEST)Reims-Prunay, Frankrijk (7072): zicht: 20.05.2018 10:00:00 - 26.05.2018 10:00:00 (CEST)Reims-Prunay, Frankrijk (7072): Zonneschijnduur: 20.05.2018 10:00:00 - 26.05.2018 10:00:00 (CEST)Reims-Prunay, Frankrijk (7072): neerslag: 20.05.2018 10:00:00 - 26.05.2018 10:00:00 (CEST)
Datum & Tijd tt [°C] td [°C] tt 5cm [°C] tt -20cm [°C] tt -100cm [°C] ff [km/u] ff [kn] fx [km/u] fx [kn] dd ppp [hPa] vv [km] sd [min] rr [mm]
26.05.2018 10:00:00 22,0 16,7 23,3 18,4 14,0 14 8 23 12 O 1016,6 20 51 0,0
26.05.2018 09:00:00 19,8 15,9 20,5 18,5 14,0 6 3 10 5 ZO 1017,0 19 60 0,0
26.05.2018 08:00:00 16,4 14,8 16,0 18,6 14,0 0 0 4 2 N 1016,8 20 14 0,0
26.05.2018 07:00:00 15,0 14,0 13,2 18,8 14,0 2 1 8 4 ZZW 1016,8 20 43 0,0
26.05.2018 06:00:00 14,8 13,7 12,0 18,9 14,0 4 2 13 7 W 1016,9 20 0 0,0
26.05.2018 05:00:00 15,3 13,8 12,6 19,1 14,0 6 3 10 5 WZW 1016,9 20 0 0,0
26.05.2018 04:00:00 16,0 14,2 13,0 19,2 13,9 3 1 10 5 WNW 1017,0 20 0 0,0
26.05.2018 03:00:00 17,1 14,7 15,4 19,3 13,9 3 2 12 7 Z 1016,9 20 0 0,0
26.05.2018 02:00:00 18,2 15,3 15,1 19,5 13,9 10 6 25 13 NW 1017,4 20 0 0,0
26.05.2018 01:00:00 16,9 14,0 14,9 19,7 14,0 0 0 4 2 N 1016,7 20 0 0,0
26.05.2018 00:00:00 16,7 14,2 14,1 19,8 13,9 0 0 4 2 N 1016,7 20 0 0,0
25.05.2018 23:00:00 17,1 13,6 14,3 19,9 13,9 3 1 16 8 ZO 1016,5 20 0 0,0
25.05.2018 22:00:00 18,6 14,3 16,5 19,9 13,9 13 7 16 8 ONO 1016,1 20 0 0,0
25.05.2018 21:00:00 21,3 17,1 20,1 20,0 13,9 11 6 15 8 ONO 1015,6 20 54 0,0
25.05.2018 20:00:00 23,3 17,5 24,0 19,9 13,9 11 6 14 8 ONO 1015,5 20 44 0,0
25.05.2018 19:00:00 23,6 16,9 24,5 19,8 13,9 10 5 19 10 ONO 1015,5 20 31 0,0
25.05.2018 18:00:00 25,0 16,2 25,2 19,5 13,9 12 6 25 13 NO 1015,7 20 38 0,0
25.05.2018 17:00:00 25,6 14,7 25,9 19,2 13,9 13 7 23 12 ONO 1016,1 20 51 0,0
25.05.2018 16:00:00 24,9 14,7 26,9 18,8 13,9 12 7 23 13 ONO 1016,6 20 40 0,0
25.05.2018 15:00:00 24,8 13,4 29,6 18,4 13,9 7 4 17 9 NNO 1016,8 20 53 0,0
25.05.2018 14:00:00 24,7 15,9 28,0 18,0 13,8 8 4 16 9 OZO 1016,9 20 32 0,0
25.05.2018 13:00:00 24,7 13,6 30,5 17,7 13,8 6 3 15 8 ZZO 1016,9 20 60 0,0
25.05.2018 12:00:00 23,3 16,3 29,2 17,5 13,8 9 5 18 10 ONO 1017,2 20 60 0,0
25.05.2018 11:00:00 22,1 17,5 26,4 17,3 13,8 5 3 12 6 O 1017,4 20 60 0,0
25.05.2018 10:00:00 20,2 16,6 21,6 17,3 13,8 3 2 9 5 ZZO 1017,4 20 58 0,0
25.05.2018 09:00:00 16,8 15,0 18,6 17,4 13,8 4 2 7 4 ZO 1017,6 16 60 0,0
25.05.2018 08:00:00 13,9 13,6 12,1 17,5 13,8 2 1 4 2 ZW 1017,7 3,8 54 0,0
25.05.2018 07:00:00 10,6 10,3 8,1 17,8 13,8 0 0 5 3 N 1017,3 4,4 43 0,0
25.05.2018 06:00:00 9,0 8,5 6,5 17,9 13,8 5 3 6 3 N 1017,2 3,7 0 0,0
25.05.2018 05:00:00 9,8 9,3 7,4 18,1 13,8 0 0 5 3 N 1016,7 7 0 0,0
25.05.2018 04:00:00 10,1 9,8 8,7 18,3 13,8 3 1 5 3 NNO 1016,6 9 0 0,0
25.05.2018 03:00:00 10,5 10,0 7,7 18,5 13,8 3 2 6 4 NO 1016,6 8 0 0,0
25.05.2018 02:00:00 11,2 10,3 7,4 18,7 13,8 2 1 7 4 NO 1016,9 8 0 0,0
25.05.2018 01:00:00 13,5 12,9 10,3 18,9 13,8 7 4 9 5 O 1017,1 20 0 0,0
25.05.2018 00:00:00 13,5 12,6 10,7 19,1 13,8 6 3 11 6 ONO 1017,0 16 0 0,0
24.05.2018 23:00:00 15,6 14,8 10,8 19,2 13,8 3 1 8 5 OZO 1017,0 20 0 0,0
24.05.2018 22:00:00 17,2 15,4 13,9 19,2 13,8 8 4 19 10 NO 1016,6 20 0 0,0
24.05.2018 21:00:00 18,8 15,5 16,9 19,3 13,8 3 1 5 3 ONO 1016,0 20 37 0,0
24.05.2018 20:00:00 21,5 15,6 23,2 19,2 13,7 4 2 9 5 ZZO 1015,1 20 60 0,0
24.05.2018 19:00:00 21,4 15,7 20,9 19,1 13,7 4 2 17 9 OZO 1015,1 20 19 0,0
24.05.2018 18:00:00 19,7 15,1 20,9 19,0 13,7 12 6 22 12 NNO 1015,8 20 2 0,0
24.05.2018 17:00:00 22,5 14,1 22,4 18,7 13,7 3 2 23 12 W 1015,6 20 14 0,0
24.05.2018 16:00:00 19,9 14,7 22,4 18,3 13,7 21 11 34 18 N 1016,1 20 15 0,0
24.05.2018 15:00:00 23,8 13,6 27,2 18,0 13,7 10 6 21 12 ZZO 1015,9 20 55 0,0
24.05.2018 14:00:00 23,1 13,6 26,4 17,6 13,7 6 4 18 10 O 1016,4 20 46 0,0
24.05.2018 13:00:00 22,6 13,9 25,3 17,4 13,7 5 3 12 7 ZZO 1016,9 20 28 0,0
24.05.2018 12:00:00 21,0 15,3 23,9 17,2 13,7 8 4 15 8 OZO 1017,4 20 39 0,0
24.05.2018 11:00:00 20,2 16,2 21,6 17,1 13,7 5 3 14 7 ZO 1017,5 15 54 0,0
24.05.2018 10:00:00 16,7 15,4 17,1 17,1 13,7 7 4 12 7 O 1017,9 10 7 0,0
24.05.2018 09:00:00 14,8 14,0 14,9 17,2 13,7 7 4 9 5 O 1018,0 12 0 0,0
24.05.2018 08:00:00 13,9 13,6 13,2 17,3 13,7 0 0 3 1 N 1017,7 7 0 0,0
24.05.2018 07:00:00 12,9 12,6 11,3 17,5 13,7 0 0 6 3 N 1018,0 4,2 0 0,0
24.05.2018 06:00:00 12,7 12,4 10,8 17,6 13,7 0 0 5 3 N 1017,9 5 0 0,2
24.05.2018 05:00:00 11,8 11,5 9,6 17,8 13,7 2 1 5 3 ZZO 1018,2 7 0 0,0
24.05.2018 04:00:00 10,9 10,4 8,7 17,9 13,7 0 0 5 3 N 1018,2 4,1 0 0,0
24.05.2018 03:00:00 11,7 11,1 9,5 18,1 13,6 5 3 6 4 N 1018,0 1,6 0 0,0
24.05.2018 02:00:00 13,3 12,4 10,9 18,2 13,6 3 2 5 3 NW 1018,3 7 0 0,0
24.05.2018 01:00:00 15,4 14,3 13,4 18,3 13,6 0 0 10 5 N 1018,2 14 0 0,0
24.05.2018 00:00:00 15,7 14,7 14,7 18,4 13,6 5 3 12 7 NNW 1018,8 9 0 0,0
23.05.2018 23:00:00 15,5 14,4 15,0 18,5 13,6 6 4 10 6 NW 1018,7 18 0 0,0
23.05.2018 22:00:00 15,7 14,7 15,0 18,6 13,6 3 2 5 3 NNO 1018,5 13 0 0,0
23.05.2018 21:00:00 16,4 14,9 15,7 18,7 13,6 5 3 16 8 ZO 1018,1 19 0 0,0
23.05.2018 20:00:00 17,7 14,6 18,1 18,7 13,6 8 4 19 10 NO 1017,8 20 13 0,0
23.05.2018 19:00:00 17,0 14,5 17,9 18,6 13,6 7 4 16 9 NNO 1017,8 20 0 0,0
23.05.2018 18:00:00 17,7 13,8 18,4 18,3 13,6 4 2 23 13 ONO 1017,5 20 6 0,0
23.05.2018 17:00:00 18,1 13,6 19,5 18,0 13,6 18 10 46 25 OZO 1017,5 20 24 0,0
23.05.2018 16:00:00 22,9 15,0 27,5 17,6 13,6 7 4 16 9 NNW 1016,9 20 60 0,0
23.05.2018 15:00:00 21,8 15,9 24,6 17,3 13,6 9 5 18 10 NW 1017,1 18 53 0,0
23.05.2018 14:00:00 20,7 15,5 23,5 17,0 13,6 10 6 19 10 WNW 1017,6 12 42 0,0
23.05.2018 13:00:00 19,1 14,6 21,0 16,8 13,6 11 6 22 12 WNW 1018,3 10 24 0,0
23.05.2018 12:00:00 17,9 14,6 19,1 16,7 13,6 11 6 18 10 NW 1018,3 9 10 0,0
23.05.2018 11:00:00 16,6 14,1 17,8 16,7 13,6 11 6 18 10 NNW 1018,2 7 0 0,0
23.05.2018 10:00:00 16,0 13,5 18,0 16,7 13,6 13 7 21 12 NW 1018,0 9 36 0,0
23.05.2018 09:00:00 15,1 13,5 14,8 16,7 13,5 10 6 16 8 NW 1017,7 8 8 0,0
23.05.2018 08:00:00 14,4 12,4 14,4 16,9 13,6 3 2 11 6 W 1017,4 9 37 0,0
23.05.2018 07:00:00 13,1 12,2 10,8 17,0 13,5 9 5 14 8 NW 1016,9 5 42 0,0
23.05.2018 06:00:00 12,0 10,9 11,0 17,1 13,6 8 4 12 6 NW 1016,3 7 0 0,0
23.05.2018 05:00:00 13,0 11,6 12,3 17,2 13,5 9 5 14 8 NNW 1016,1 10 0 0,0
23.05.2018 04:00:00 13,2 11,8 11,4 17,3 13,5 5 3 10 5 WNW 1015,9 13 0 0,0
23.05.2018 03:00:00 14,2 12,1 13,0 17,4 13,5 7 4 14 8 WNW 1015,7 19 0 0,0
23.05.2018 02:00:00 14,1 12,0 13,0 17,6 13,5 6 3 18 10 N 1015,6 20 0 0,0
23.05.2018 01:00:00 14,1 12,3 13,1 17,7 13,5 6 3 16 9 NW 1015,3 20 0 0,0
23.05.2018 00:00:00 14,4 12,8 13,6 17,8 13,5 4 2 9 5 NNW 1015,0 16 0 0,0
22.05.2018 23:00:00 16,0 12,9 14,5 17,8 13,5 5 3 14 8 NW 1015,0 20 0 0,0
22.05.2018 22:00:00 16,5 14,1 15,2 17,8 13,5 10 5 15 8 W 1014,6 18 0 0,0
22.05.2018 21:00:00 16,7 14,5 15,2 17,8 13,5 6 4 19 10 NW 1013,8 19 0 0,0
22.05.2018 20:00:00 19,8 15,6 19,9 17,8 13,5 4 2 7 4 NW 1013,2 20 29 0,0
22.05.2018 19:00:00 20,1 15,5 18,4 17,7 13,5 7 4 13 7 NO 1013,1 20 54 0,0
22.05.2018 18:00:00 16,9 14,5 14,7 17,7 13,5 3 2 8 4 O 1012,6 20 0 0,0
22.05.2018 17:00:00 16,1 13,0 13,8 17,5 13,5 0 0 27 15 N 1013,2 20 0 9,0
22.05.2018 16:00:00 23,5 16,0 26,7 17,1 13,5 6 4 13 7 Z 1012,2 19 44 0,0
22.05.2018 15:00:00 22,4 14,0 26,4 16,9 13,4 6 4 10 5 ZZO 1012,5 20 10 0,0
22.05.2018 14:00:00 22,1 15,9 24,3 16,7 13,4 4 2 10 5 N 1012,7 20 25 0,0
22.05.2018 13:00:00 20,8 14,7 23,3 16,5 13,4 6 3 9 5 ZZO 1012,9 20 9 0,0
22.05.2018 12:00:00 19,8 14,2 22,4 16,4 13,4 5 3 11 6 WNW 1013,1 20 0 0,0
22.05.2018 11:00:00 18,5 13,4 18,4 16,4 13,4 6 3 10 5 W 1013,0 20 0 0,0
22.05.2018 10:00:00 16,5 13,6 16,3 16,4 13,4 7 4 12 6 W 1013,1 18 0 0,0
22.05.2018 09:00:00 15,0 13,7 14,6 16,5 13,4 4 2 10 6 ONO 1013,0 16 0 0,0
22.05.2018 08:00:00 13,2 12,3 13,3 16,6 13,4 9 5 11 6 O 1012,6 15 3 0,2
22.05.2018 07:00:00 12,0 11,4 9,3 16,8 13,4 2 1 6 4 ONO 1012,1 13 41 0,0
22.05.2018 06:00:00 11,0 10,4 9,9 16,9 13,4 0 0 7 4 N 1011,8 16 0 0,0
22.05.2018 05:00:00 10,4 9,9 8,2 17,1 13,4 0 0 13 7 N 1011,8 15 0 0,0
22.05.2018 04:00:00 10,3 9,5 7,6 17,2 13,4 0 0 9 5 N 1011,7 17 0 0,0
22.05.2018 03:00:00 11,0 10,1 8,9 17,4 13,4 4 2 6 3 O 1011,8 17 0 0,0
22.05.2018 02:00:00 11,7 11,1 10,4 17,6 13,4 2 1 4 2 NNW 1011,7 18 0 0,0
22.05.2018 01:00:00 11,0 10,2 10,0 17,8 13,4 3 2 9 5 N 1011,9 14 0 0,0
22.05.2018 00:00:00 10,9 10,0 9,3 17,9 13,4 3 1 8 5 N 1012,0 17 0 0,0
21.05.2018 23:00:00 11,9 10,8 10,9 18,0 13,4 6 3 9 5 N 1012,1 20 0 0,0
21.05.2018 22:00:00 14,0 12,4 12,6 18,1 13,4 4 2 6 3 NW 1011,7 20 0 0,0
21.05.2018 21:00:00 19,7 12,9 17,1 18,2 13,4 4 2 9 5 ZZW 1011,1 20 58 0,0
21.05.2018 20:00:00 21,4 13,8 23,1 18,1 13,4 7 4 12 7 ZZO 1011,1 20 55 0,0
21.05.2018 19:00:00 22,0 13,6 21,9 18,0 13,4 8 4 12 7 ZZO 1010,9 20 30 0,0
21.05.2018 18:00:00 21,7 13,3 22,0 17,8 13,3 7 4 16 8 OZO 1011,0 20 6 0,0
21.05.2018 17:00:00 22,3 13,1 22,5 17,6 13,3 10 5 21 11 ZZO 1011,4 20 12 0,0
21.05.2018 16:00:00 21,3 13,2 22,6 17,3 13,4 10 5 19 10 OZO 1011,9 20 17 0,0
21.05.2018 15:00:00 21,3 12,7 24,4 16,9 13,4 9 5 18 10 ZZO 1012,4 20 39 0,0
21.05.2018 14:00:00 21,8 14,2 23,6 16,5 13,4 8 5 19 10 ZO 1012,5 20 34 0,0
21.05.2018 13:00:00 20,1 13,3 22,4 16,2 13,4 6 3 14 7 ZO 1013,0 20 30 0,0
21.05.2018 12:00:00 19,7 14,1 25,1 15,9 13,3 7 4 16 8 ONO 1013,2 20 60 0,0
21.05.2018 11:00:00 18,4 12,6 23,2 15,7 13,3 6 4 16 8 O 1013,5 20 60 0,0
21.05.2018 10:00:00 17,6 12,5 18,8 15,7 13,3 6 3 13 7 O 1013,6 20 53 0,0
21.05.2018 09:00:00 14,8 12,8 13,2 15,8 13,3 0 0 5 3 N 1014,1 20 16 0,0
21.05.2018 08:00:00 12,1 11,2 11,0 15,9 13,3 3 1 4 2 ZW 1014,5 20 20 0,0
21.05.2018 07:00:00 10,2 9,9 7,1 16,1 13,3 2 1 5 3 W 1014,7 12 13 0,0
21.05.2018 06:00:00 8,0 7,4 5,9 16,3 13,3 4 2 6 3 NW 1014,8 8 0 0,0
21.05.2018 05:00:00 9,2 8,4 6,8 16,5 13,3 2 1 8 5 W 1014,9 8 0 0,0
21.05.2018 04:00:00 8,9 8,3 5,8 16,6 13,3 4 2 7 4 W 1015,4 18 0 0,0
21.05.2018 03:00:00 8,1 7,3 6,1 16,9 13,3 5 3 8 4 NW 1015,7 16 0 0,0
21.05.2018 02:00:00 9,2 8,3 5,9 17,1 13,3 2 1 8 4 NNW 1016,3 19 0 0,0
21.05.2018 01:00:00 11,0 9,3 7,3 17,3 13,3 2 1 8 4 NW 1016,7 20 0 0,0
21.05.2018 00:00:00 11,3 9,9 7,7 17,4 13,3 4 2 13 7 Z 1016,8 20 0 0,0
20.05.2018 23:00:00 12,8 10,3 8,9 17,6 13,3 7 4 14 8 NNO 1017,1 16 0 0,0
20.05.2018 22:00:00 13,4 11,6 11,1 17,7 13,3 2 1 10 5 W 1017,3 20 0 0,0
20.05.2018 21:00:00 14,2 11,2 12,4 17,7 13,3 9 5 20 11 ONO 1017,1 20 13 0,0
20.05.2018 20:00:00 16,8 12,3 15,4 17,7 13,3 10 5 16 8 NO 1017,2 20 21 0,0
20.05.2018 19:00:00 16,6 12,9 15,2 17,7 13,3 10 5 19 11 NO 1017,5 20 0 0,0
20.05.2018 18:00:00 16,0 13,3 14,7 17,4 13,3 4 2 37 20 NNO 1017,7 20 0 2,9
20.05.2018 17:00:00 22,4 10,2 25,1 17,1 13,3 9 5 20 11 NO 1016,6 20 53 0,0
20.05.2018 16:00:00 22,8 11,5 28,0 16,7 13,2 8 4 22 12 NO 1017,5 18 54 0,0
20.05.2018 15:00:00 22,2 11,0 24,5 16,4 13,3 14 7 23 12 ONO 1018,6 20 49 0,0
20.05.2018 14:00:00 21,3 11,9 22,5 16,0 13,3 11 6 24 13 ONO 1019,2 20 42 0,0
20.05.2018 13:00:00 20,5 10,3 24,3 15,7 13,3 12 6 26 14 ONO 1019,6 20 56 0,0
20.05.2018 12:00:00 19,8 9,7 26,3 15,5 13,3 15 8 25 14 NO 1020,2 20 60 0,0
20.05.2018 11:00:00 17,9 11,0 22,4 15,4 13,2 6 4 15 8 ONO 1020,5 17 60 0,0
20.05.2018 10:00:00 15,1 9,5 16,9 15,5 13,2 6 3 11 6 NNO 1021,1 17 60 0,0

tt = temperatuur
td = dauwpunt
tt 5cm = temperatuur 5cm
tt -20cm = temperatuur -20cm
tt -100cm = temperatuur -100cm
ff = windsnelheid
fx = windstoten
dd = windrichting
ppp = luchtdruk
vv = zicht
sd = Zonneschijnduur
rr = neerslag

Weerstations in de omgeving